Location: Balsareny
(41.8670°N, 1.8830°E)
Time: 15:07:37
(UTC+02:00)

OTV 5 (USA 277) - Visible Passes

Search period start: 20 April 2019 00:00
Search period end: 30 April 2019 00:00
Orbit: 310 x 325 km, 54.5° (Epoch: 16 April)

Date Brightness Start Highest point End Pass type
(mag) Time Alt. Az. Time Alt. Az. Time Alt. Az.
20 Apr ? 05:50:26 10° NNW 05:52:55 33° NE 05:55:23 10° ESE visible
21 Apr ? 04:32:28 12° N 04:33:02 13° NNE 04:34:22 10° NE visible
21 Apr ? 06:05:03 10° NW 06:07:43 85° SW 06:10:22 10° SE visible
22 Apr ? 04:47:45 22° NNE 04:48:03 23° NNE 04:50:16 10° E visible
22 Apr ? 06:20:04 10° WNW 06:22:22 26° SW 06:24:40 10° SSE visible
23 Apr ? 05:03:49 33° E 05:03:49 33° E 05:05:33 10° ESE visible
23 Apr ? 21:21:12 10° S 21:23:09 18° SE 21:25:06 10° E visible
23 Apr ? 22:54:50 10° W 22:56:30 25° WNW 22:56:30 25° WNW visible
24 Apr ? 21:35:05 10° SW 21:37:45 51° SE 21:40:24 10° ENE visible
24 Apr ? 23:10:26 10° WNW 23:12:16 16° NNW 23:12:52 15° N visible
25 Apr ? 21:49:49 10° WSW 21:52:29 50° NW 21:55:09 10° NE visible
25 Apr ? 23:27:08 10° NNW 23:27:22 10° NNW 23:27:35 10° NNW visible
26 Apr ? 22:05:10 10° W 22:07:23 22° NNW 22:09:36 10° NNE visible
27 Apr ? 22:21:06 10° NW 22:22:24 13° NNW 22:23:42 10° N visible
29 Apr ? 21:15:37 10° WNW 21:17:28 16° NNW 21:19:18 10° NNE visible
